Regional Weather Roundup
Issued by NWS

Home | Current Version | Previous Version | Graphics & Text | Print | Product List | Glossary On
Versions: 1 2 3 4 5 6 7 8 9 10 11 12 13 14 15 16 17 18 19 20 21 22 23 24 25 26 27 28 29 30 31 32 33 34 35 36 37 38 39 40 41 42 43 44 45 46 47 48 49 50
000
ASUS43 KLMK 200002
RWRKY
KENTUCKY REGIONAL WEATHER ROUNDUP
NATIONAL WEATHER SERVICE LOUISVILLE KY
800 PM EDT FRI SEP 19 2014

NOTE "FAIR" INDICATES FEW OR NO CLOUDS BELOW 12,000 FEET
WITH NO SIGNIFICANT WEATHER AND/OR OBSTRUCTIONS TO VISIBILITY.

KYZ001>023-026-027-061>063-070>075-200100-
WESTERN AND SOUTH CENTRAL KENTUCKY

CITY           SKY/WX    TMP DP  RH WIND       PRES   REMARKS
PADUCAH        CLEAR     76  63  64 CALM      30.00F
HENDERSON      CLEAR     70  55  60 E3        30.02S
OWENSBORO      CLEAR     76  58  53 E3        30.03S
HOPKINSVILLE   CLEAR     77  64  63 CALM      30.02R
BOWLING GREEN  CLEAR     72  60  66 E3        30.03S
GLASGOW        CLEAR     70  60  71 CALM      30.04S
$$

KYZ024-025-028>034-038-045-046-053-200100-
NORTH CENTRAL KENTUCKY

CITY           SKY/WX    TMP DP  RH WIND       PRES   REMARKS
LOUISVILLE/SDF PTCLDY    74  55  51 E5        30.05S
LOUISVILLE/LOU CLEAR     75  54  47 E3        30.06S
FORT KNOX      PTCLDY    70  59  67 NE2       30.05R
$$

KYZ035>037-039>044-047>052-055>060-089>105-200100-
NORTHEAST KENTUCKY

CITY           SKY/WX    TMP DP  RH WIND       PRES   REMARKS
LEXINGTON      CLEAR     73  56  54 E3        30.08S
COVINGTON      PTCLDY    68  50  52 SE3       30.08S
FRANKFORT      CLEAR     66  57  72 CALM      30.07S
$$

KYZ054-064>069-076>088-106>120-200100-
SOUTHEAST KENTUCKY

CITY           SKY/WX    TMP DP  RH WIND       PRES   REMARKS
JACKSON        CLEAR     70  62  76 CALM      30.11S
LONDON         CLEAR     72  62  71 CALM      30.10R
SOMERSET       CLEAR     72  61  68 CALM      30.09R
MIDDLESBORO    CLEAR     68  61  78 W3        30.11R
MONTICELLO     CLEAR     69  63  81 CALM      30.09R
$$




USA.gov is the U.S. government's official web portal to all federal, state and local government web resources and services.